Time,TemperatureF,DewpointF,PressureIn,WindDirection,WindDirectionDegrees,WindSpeedMPH,WindSpeedGustMPH,Humidity,HourlyPrecipIn,Conditions,Clouds,dailyrainin,SoftwareType,DateUTC
2013-09-21 00:13:00,59.0,50.0,29.91,NW,324,1.0,6.0,71,0.00,,,0.13,,2013-09-21 05:13:00,
2013-09-21 00:23:00,59.0,50.0,29.91,NW,325,0.0,3.0,72,0.00,,,0.05,,2013-09-21 05:23:00,
2013-09-21 00:43:00,58.0,49.0,29.90,NW,321,0.0,4.0,73,0.00,,,0.05,,2013-09-21 05:43:00,
2013-09-21 00:53:00,58.0,50.0,29.90,NW,316,0.0,6.0,74,0.00,,,0.05,,2013-09-21 05:53:00,
2013-09-21 01:12:00,57.0,49.0,29.90,WNW,287,1.0,5.0,74,0.00,,,0.05,,2013-09-21 06:12:00,
2013-09-21 01:22:00,57.0,48.0,29.90,NNW,327,0.0,5.0,73,0.00,,,0.01,,2013-09-21 06:22:00,
2013-09-21 01:42:00,57.0,48.0,29.90,NW,308,2.0,6.0,73,0.00,,,0.01,,2013-09-21 06:42:00,
2013-09-21 01:53:00,57.0,49.0,29.90,NNW,342,3.0,6.0,74,0.00,,,0.01,,2013-09-21 06:53:00,
2013-09-21 02:11:00,56.0,48.0,29.90,NW,304,1.0,10.0,74,0.00,,,0.01,,2013-09-21 07:11:00,
2013-09-21 02:21:00,56.0,48.0,29.90,NNW,340,1.0,6.0,75,0.00,,,0.01,,2013-09-21 07:21:00,
2013-09-21 02:42:00,55.0,47.0,29.90,North,355,1.0,5.0,75,0.00,,,0.01,,2013-09-21 07:42:00,
2013-09-21 02:52:00,55.0,48.0,29.90,NW,315,0.0,7.0,76,0.00,,,0.01,,2013-09-21 07:52:00,
2013-09-21 03:13:00,55.0,48.0,29.89,NW,321,0.0,4.0,77,0.00,,,0.01,,2013-09-21 08:13:00,
2013-09-21 03:22:00,54.0,47.0,29.89,NNW,333,1.0,7.0,78,0.00,,,0.00,,2013-09-21 08:22:00,
2013-09-21 03:52:00,53.0,47.0,29.89,NNW,333,1.0,4.0,80,0.00,,,0.00,,2013-09-21 08:52:00,
2013-09-21 04:11:00,53.0,47.0,29.89,NNW,329,0.0,3.0,81,0.00,,,0.00,,2013-09-21 09:11:00,
2013-09-21 04:22:00,52.0,47.0,29.90,NNW,339,1.0,7.0,82,0.00,,,0.00,,2013-09-21 09:22:00,
2013-09-21 04:43:00,52.0,47.0,29.90,NNW,327,1.0,6.0,82,0.00,,,0.00,,2013-09-21 09:43:00,
2013-09-21 04:54:00,52.0,47.0,29.90,NNW,331,2.0,6.0,82,0.00,,,0.00,,2013-09-21 09:54:00,
2013-09-21 05:12:00,52.0,47.0,29.90,NW,309,1.0,7.0,82,0.00,,,0.00,,2013-09-21 10:12:00,
2013-09-21 05:23:00,52.0,47.0,29.90,NNW,331,1.0,6.0,82,0.00,,,0.00,,2013-09-21 10:23:00,
2013-09-21 05:42:00,52.0,47.0,29.91,NW,310,1.0,4.0,82,0.00,,,0.00,,2013-09-21 10:42:00,
2013-09-21 05:52:00,51.0,46.0,29.91,NNW,336,0.0,6.0,82,0.00,,,0.00,,2013-09-21 10:52:00,
2013-09-21 06:11:00,51.0,46.0,29.91,NW,309,0.0,5.0,82,0.00,,,0.00,,2013-09-21 11:11:00,
2013-09-21 06:23:00,51.0,46.0,29.92,NW,323,0.0,3.0,82,0.00,,,0.00,,2013-09-21 11:23:00,
2013-09-21 06:52:00,50.0,45.0,29.93,NNW,332,0.0,3.0,83,0.00,,,0.00,,2013-09-21 11:52:00,
2013-09-21 07:21:00,50.0,45.0,29.94,West,281,1.0,3.0,84,0.00,,,0.00,,2013-09-21 12:21:00,
2013-09-21 07:52:00,50.0,45.0,29.94,WNW,294,1.0,3.0,84,0.00,,,0.00,,2013-09-21 12:52:00,
2013-09-21 08:11:00,50.0,45.0,29.95,NNW,332,2.0,6.0,84,0.00,,,0.00,,2013-09-21 13:11:00,
2013-09-21 08:21:00,51.0,46.0,29.96,NNW,338,0.0,4.0,84,0.00,,,0.00,,2013-09-21 13:21:00,
2013-09-21 08:42:00,52.0,47.0,29.96,NW,326,0.0,6.0,84,0.00,,,0.00,,2013-09-21 13:42:00,
2013-09-21 08:52:00,52.0,47.0,29.96,NNW,342,0.0,4.0,83,0.00,,,0.00,,2013-09-21 13:52:00,
2013-09-21 09:11:00,53.0,48.0,29.96,NW,317,0.0,6.0,82,0.00,,,0.00,,2013-09-21 14:11:00,
2013-09-21 09:22:00,54.0,48.0,29.96,WNW,301,2.0,4.0,81,0.00,,,0.00,,2013-09-21 14:22:00,
2013-09-21 09:42:00,55.0,49.0,29.96,NW,325,1.0,7.0,80,0.00,,,0.00,,2013-09-21 14:42:00,
2013-09-21 09:52:00,56.0,50.0,29.96,NW,322,1.0,4.0,79,0.00,,,0.00,,2013-09-21 14:52:00,
2013-09-21 10:12:00,57.0,50.0,29.96,NW,317,3.0,6.0,76,0.00,,,0.00,,2013-09-21 15:12:00,
2013-09-21 10:22:00,59.0,50.0,29.96,NW,313,2.0,4.0,72,0.00,,,0.00,,2013-09-21 15:22:00,
2013-09-21 10:55:00,62.0,51.0,29.96,NNW,343,1.0,5.0,66,0.00,,,0.00,,2013-09-21 15:55:00,
2013-09-21 11:24:00,64.0,50.0,29.96,WNW,292,0.0,5.0,61,0.00,,,0.00,,2013-09-21 16:24:00,
2013-09-21 11:54:00,65.0,48.0,29.95,NW,316,4.0,7.0,54,0.00,,,0.00,,2013-09-21 16:54:00,
2013-09-21 12:12:00,66.0,47.0,29.95,NW,306,3.0,9.0,51,0.00,,,0.00,,2013-09-21 17:12:00,
2013-09-21 12:23:00,67.0,47.0,29.95,NNW,342,2.0,8.0,48,0.00,,,0.00,,2013-09-21 17:23:00,
2013-09-21 12:52:00,68.0,47.0,29.95,NNW,337,3.0,8.0,47,0.00,,,0.00,,2013-09-21 17:52:00,
2013-09-21 13:12:00,69.0,50.0,29.95,NNW,343,1.0,5.0,50,0.00,,,0.00,,2013-09-21 18:12:00,
2013-09-21 13:22:00,69.0,47.0,29.95,NW,305,3.0,9.0,45,0.00,,,0.00,,2013-09-21 18:22:00,
2013-09-21 13:42:00,70.0,49.0,29.95,NW,324,1.0,5.0,48,0.00,,,0.00,,2013-09-21 18:42:00,
2013-09-21 13:52:00,70.0,50.0,29.94,NW,321,0.0,7.0,50,0.00,,,0.00,,2013-09-21 18:52:00,
2013-09-21 14:11:00,71.0,49.0,29.93,NNW,333,2.0,7.0,45,0.00,,,0.00,,2013-09-21 19:11:00,
2013-09-21 14:21:00,71.0,48.0,29.93,NNW,344,4.0,9.0,44,0.00,,,0.00,,2013-09-21 19:21:00,
2013-09-21 14:52:00,70.0,46.0,29.92,WNW,300,1.0,8.0,42,0.00,,,0.00,,2013-09-21 19:52:00,
2013-09-21 15:12:00,71.0,49.0,29.92,NW,323,0.0,10.0,46,0.00,,,0.00,,2013-09-21 20:12:00,
2013-09-21 15:22:00,71.0,46.0,29.92,West,274,2.0,10.0,41,0.00,,,0.00,,2013-09-21 20:22:00,
2013-09-21 15:42:00,72.0,51.0,29.91,NW,324,1.0,6.0,47,0.00,,,0.00,,2013-09-21 20:42:00,
2013-09-21 15:52:00,73.0,49.0,29.91,NNW,345,2.0,7.0,42,0.00,,,0.00,,2013-09-21 20:52:00,
2013-09-21 16:12:00,72.0,46.0,29.90,WNW,291,5.0,11.0,39,0.00,,,0.00,,2013-09-21 21:12:00,
2013-09-21 16:22:00,72.0,49.0,29.90,NNW,329,0.0,6.0,44,0.00,,,0.00,,2013-09-21 21:22:00,
2013-09-21 16:44:00,72.0,46.0,29.90,NNW,338,4.0,8.0,40,0.00,,,0.00,,2013-09-21 21:44:00,
2013-09-21 16:54:00,71.0,47.0,29.90,NNW,329,1.0,9.0,43,0.00,,,0.00,,2013-09-21 21:54:00,
2013-09-21 17:13:00,71.0,47.0,29.90,NNW,340,1.0,8.0,43,0.00,,,0.00,,2013-09-21 22:13:00,
2013-09-21 17:23:00,72.0,46.0,29.90,WNW,292,5.0,9.0,39,0.00,,,0.00,,2013-09-21 22:23:00,
2013-09-21 17:43:00,71.0,45.0,29.90,NW,325,2.0,6.0,40,0.00,,,0.00,,2013-09-21 22:43:00,
2013-09-21 17:53:00,71.0,48.0,29.90,WNW,292,1.0,6.0,44,0.00,,,0.00,,2013-09-21 22:53:00,
2013-09-21 18:13:00,71.0,45.0,29.89,NW,326,1.0,4.0,40,0.00,,,0.00,,2013-09-21 23:13:00,
2013-09-21 18:23:00,71.0,47.0,29.89,NNW,336,0.0,1.0,43,0.00,,,0.00,,2013-09-21 23:23:00,
2013-09-21 18:53:00,69.0,46.0,29.90,NW,311,0.0,3.0,44,0.00,,,0.00,,2013-09-21 23:53:00,
2013-09-21 19:12:00,67.0,49.0,29.90,NW,311,0.0,0.0,53,0.00,,,0.00,,2013-09-22 00:12:00,
2013-09-21 19:22:00,65.0,49.0,29.90,NW,311,0.0,0.0,56,0.00,,,0.00,,2013-09-22 00:22:00,
2013-09-21 19:43:00,63.0,48.0,29.90,NW,311,0.0,0.0,59,0.00,,,0.00,,2013-09-22 00:43:00,
2013-09-21 19:52:00,61.0,49.0,29.91,NW,311,0.0,0.0,64,0.00,,,0.00,,2013-09-22 00:52:00,
2013-09-21 20:12:00,59.0,48.0,29.91,NW,311,0.0,0.0,68,0.00,,,0.00,,2013-09-22 01:12:00,
2013-09-21 20:21:00,58.0,49.0,29.91,NW,311,0.0,0.0,71,0.00,,,0.00,,2013-09-22 01:21:00,
2013-09-21 20:42:00,56.0,48.0,29.92,NW,311,0.0,0.0,74,0.00,,,0.00,,2013-09-22 01:42:00,
2013-09-21 20:52:00,55.0,48.0,29.92,NW,311,0.0,0.0,77,0.00,,,0.00,,2013-09-22 01:52:00,
2013-09-21 21:12:00,55.0,49.0,29.92,NW,311,0.0,0.0,79,0.00,,,0.00,,2013-09-22 02:12:00,
2013-09-21 21:22:00,54.0,48.0,29.92,NW,311,0.0,0.0,80,0.00,,,0.00,,2013-09-22 02:22:00,
2013-09-21 21:42:00,53.0,47.0,29.92,NW,311,0.0,0.0,81,0.00,,,0.00,,2013-09-22 02:42:00,
2013-09-21 21:52:00,53.0,48.0,29.93,NW,311,0.0,0.0,82,0.00,,,0.00,,2013-09-22 02:52:00,
2013-09-21 22:12:00,52.0,47.0,29.93,NW,311,0.0,0.0,83,0.00,,,0.00,,2013-09-22 03:12:00,
2013-09-21 22:22:00,52.0,47.0,29.93,NW,311,0.0,0.0,84,0.00,,,0.00,,2013-09-22 03:22:00,
2013-09-21 22:54:00,51.0,46.0,29.95,NW,311,0.0,0.0,84,0.00,,,0.00,,2013-09-22 03:54:00,
2013-09-21 23:02:00,-999.0,-99.9,29.95,NW,311,0.0,0.0,-999,-99.99,,,-99.99,,2013-09-22 04:02:00,
2013-09-21 23:14:00,51.0,47.0,29.95,NW,311,0.0,0.0,85,0.00,,,0.00,,2013-09-22 04:14:00,
2013-09-21 23:23:00,50.0,46.0,29.95,NW,311,0.0,0.0,85,0.00,,,0.00,,2013-09-22 04:23:00,
2013-09-21 23:44:00,50.0,46.0,29.95,NW,311,0.0,0.0,85,0.00,,,0.00,,2013-09-22 04:44:00,
2013-09-21 23:54:00,50.0,46.0,29.95,NW,311,0.0,0.0,85,0.00,,,0.00,,2013-09-22 04:54:00,